Stündliche Wetter Abasolo

Heute, 8 März, Montag

Zeit Temperatur Niederschläge Wind Luftdruck Luftfeuchtigkeit
00:00 +20°C° 0 mm 1 m/S 763 mmHg 83%
01:00 +19°C° 0 mm 1 m/S 763 mmHg 85%
02:00 +19°C° 0 mm 1 m/S 763 mmHg 87%
03:00 +19°C° 0 mm 1 m/S 763 mmHg 89%
04:00 +19°C° 0 mm 1 m/S 763 mmHg 91%
05:00 +19°C° 0 mm 1 m/S 763 mmHg 91%
06:00 +19°C° 0 mm 1 m/S 763 mmHg 88%
07:00 +20°C° 0 mm 1 m/S 764 mmHg 84%
08:00 +20°C° 0 mm 2 m/S 764 mmHg 81%
09:00 +21°C° 0.1 mm 2 m/S 764 mmHg 75%
10:00 +22°C° 0.1 mm 3 m/S 764 mmHg 69%
11:00 +25°C° 0.1 mm 3 m/S 764 mmHg 63%
12:00 +25°C° 0.1 mm 4 m/S 764 mmHg 62%
13:00 +26°C° 0.1 mm 4 m/S 763 mmHg 60%
14:00 +26°C° 0.1 mm 5 m/S 763 mmHg 59%
15:00 +25°C° 0.1 mm 5 m/S 763 mmHg 63%
16:00 +23°C° 0.1 mm 5 m/S 763 mmHg 67%
17:00 +22°C° 0.1 mm 5 m/S 763 mmHg 71%
18:00 +21°C° 0 mm 4 m/S 763 mmHg 78%
19:00 +20°C° 0 mm 4 m/S 763 mmHg 84%
20:00 +19°C° 0 mm 3 m/S 764 mmHg 91%
21:00 +19°C° 0 mm 3 m/S 764 mmHg 91%
22:00 +19°C° 0 mm 3 m/S 763 mmHg 91%
23:00 +19°C° 0 mm 3 m/S 763 mmHg 91%

Morgen, 9 März, Dienstag

Zeit Temperatur Niederschläge Wind Luftdruck Luftfeuchtigkeit
00:00 +19°C° 0 mm 3 m/S 763 mmHg 91%
01:00 +19°C° 0 mm 2 m/S 762 mmHg 91%
02:00 +19°C° 0 mm 2 m/S 762 mmHg 92%
03:00 +18°C° 0 mm 2 m/S 762 mmHg 92%
04:00 +18°C° 0 mm 2 m/S 762 mmHg 93%
05:00 +17°C° 0 mm 2 m/S 761 mmHg 93%
06:00 +19°C° 0 mm 3 m/S 762 mmHg 85%
07:00 +21°C° 0 mm 4 m/S 762 mmHg 77%
08:00 +23°C° 0 mm 5 m/S 763 mmHg 68%
09:00 +26°C° 0 mm 5 m/S 763 mmHg 60%
10:00 +27°C° 0 mm 5 m/S 762 mmHg 52%
11:00 +29°C° 0 mm 6 m/S 762 mmHg 44%
12:00 +30°C° 0 mm 6 m/S 761 mmHg 45%
13:00 +30°C° 0 mm 6 m/S 760 mmHg 47%
14:00 +30°C° 0 mm 7 m/S 759 mmHg 48%
15:00 +28°C° 0 mm 7 m/S 759 mmHg 53%
16:00 +27°C° 0 mm 7 m/S 759 mmHg 59%
17:00 +24°C° 0 mm 8 m/S 759 mmHg 65%
18:00 +23°C° 0 mm 7 m/S 759 mmHg 70%
19:00 +22°C° 0 mm 6 m/S 760 mmHg 76%
20:00 +21°C° 0 mm 6 m/S 760 mmHg 81%
21:00 +20°C° 0 mm 6 m/S 760 mmHg 83%
22:00 +20°C° 0 mm 6 m/S 760 mmHg 84%
23:00 +20°C° 0 mm 6 m/S 760 mmHg 85%

übermorgen, 10 März, Mittwoch

Zeit Temperatur Niederschläge Wind Luftdruck Luftfeuchtigkeit
00:00 +19°C° 0 mm 5 m/S 759 mmHg 86%
01:00 +19°C° 0 mm 5 m/S 758 mmHg 88%
02:00 +19°C° 0 mm 4 m/S 758 mmHg 89%
03:00 +18°C° 0 mm 4 m/S 758 mmHg 89%
04:00 +18°C° 0 mm 4 m/S 758 mmHg 90%
05:00 +18°C° 0 mm 3 m/S 757 mmHg 91%
06:00 +20°C° 0 mm 4 m/S 758 mmHg 80%
07:00 +22°C° 0 mm 4 m/S 758 mmHg 70%
08:00 +25°C° 0 mm 5 m/S 759 mmHg 59%
09:00 +27°C° 0 mm 5 m/S 758 mmHg 52%
10:00 +29°C° 0 mm 6 m/S 758 mmHg 45%
11:00 +32°C° 0 mm 6 m/S 758 mmHg 38%
12:00 +32°C° 0 mm 7 m/S 757 mmHg 39%
13:00 +32°C° 0 mm 8 m/S 756 mmHg 40%
14:00 +33°C° 0 mm 8 m/S 755 mmHg 41%
15:00 +31°C° 0 mm 8 m/S 755 mmHg 46%
16:00 +29°C° 0 mm 8 m/S 755 mmHg 51%
17:00 +27°C° 0 mm 8 m/S 755 mmHg 55%
18:00 +26°C° 0 mm 7 m/S 756 mmHg 65%
19:00 +23°C° 0 mm 7 m/S 756 mmHg 75%
20:00 +21°C° 0 mm 6 m/S 757 mmHg 85%
21:00 +21°C° 0 mm 6 m/S 756 mmHg 87%
22:00 +20°C° 0 mm 5 m/S 756 mmHg 89%
23:00 +20°C° 0 mm 4 m/S 756 mmHg 91%

11 März, Donnerstag

Zeit Temperatur Niederschläge Wind Luftdruck Luftfeuchtigkeit
00:00 +20°C° 0 mm 4 m/S 756 mmHg 90%
01:00 +20°C° 0 mm 4 m/S 756 mmHg 88%
02:00 +19°C° 0 mm 4 m/S 755 mmHg 87%
03:00 +19°C° 0 mm 4 m/S 755 mmHg 87%
04:00 +19°C° 0 mm 4 m/S 755 mmHg 87%
05:00 +19°C° 0 mm 3 m/S 755 mmHg 87%
06:00 +21°C° 0 mm 5 m/S 755 mmHg 79%
07:00 +23°C° 0 mm 6 m/S 756 mmHg 71%
08:00 +26°C° 0 mm 7 m/S 756 mmHg 63%
09:00 +28°C° 0 mm 7 m/S 756 mmHg 56%
10:00 +30°C° 0 mm 7 m/S 755 mmHg 49%
11:00 +33°C° 0 mm 8 m/S 755 mmHg 42%
12:00 +33°C° 0 mm 8 m/S 754 mmHg 42%
13:00 +33°C° 0 mm 8 m/S 753 mmHg 42%
14:00 +34°C° 0 mm 9 m/S 753 mmHg 42%
15:00 +32°C° 0 mm 9 m/S 753 mmHg 46%
16:00 +31°C° 0 mm 9 m/S 753 mmHg 50%
17:00 +29°C° 0 mm 9 m/S 753 mmHg 54%
18:00 +27°C° 0 mm 8 m/S 753 mmHg 64%
19:00 +24°C° 0 mm 7 m/S 754 mmHg 74%
20:00 +22°C° 0 mm 6 m/S 755 mmHg 85%
21:00 +22°C° 0 mm 6 m/S 755 mmHg 88%
22:00 +22°C° 0 mm 5 m/S 755 mmHg 90%
23:00 +22°C° 0 mm 5 m/S 755 mmHg 93%

12 März, Freitag

Zeit Temperatur Niederschläge Wind Luftdruck Luftfeuchtigkeit
00:00 +22°C° 0 mm 5 m/S 755 mmHg 93%
01:00 +22°C° 0 mm 5 m/S 755 mmHg 92%
02:00 +22°C° 0 mm 5 m/S 755 mmHg 92%
03:00 +22°C° 0 mm 4 m/S 755 mmHg 91%
04:00 +22°C° 0 mm 4 m/S 755 mmHg 90%
05:00 +22°C° 0 mm 4 m/S 755 mmHg 88%
06:00 +23°C° 0 mm 4 m/S 756 mmHg 81%
07:00 +26°C° 0 mm 5 m/S 756 mmHg 74%
08:00 +27°C° 0 mm 6 m/S 756 mmHg 67%
09:00 +29°C° 0 mm 6 m/S 756 mmHg 62%
10:00 +30°C° 0 mm 7 m/S 756 mmHg 56%
11:00 +33°C° 0 mm 7 m/S 756 mmHg 51%
12:00 +33°C° 0 mm 7 m/S 755 mmHg 50%
13:00 +34°C° 0 mm 7 m/S 754 mmHg 48%
14:00 +34°C° 0 mm 8 m/S 753 mmHg 47%
15:00 +33°C° 0 mm 8 m/S 753 mmHg 51%
16:00 +31°C° 0 mm 8 m/S 753 mmHg 56%
17:00 +29°C° 0 mm 8 m/S 753 mmHg 61%
18:00 +27°C° 0 mm 7 m/S 754 mmHg 70%
19:00 +26°C° 0 mm 6 m/S 755 mmHg 79%
20:00 +23°C° 0 mm 6 m/S 755 mmHg 87%
21:00 +23°C° 0 mm 5 m/S 755 mmHg 89%
22:00 +23°C° 0 mm 5 m/S 755 mmHg 91%
23:00 +22°C° 0 mm 5 m/S 755 mmHg 93%

13 März, Samstag

Zeit Temperatur Niederschläge Wind Luftdruck Luftfeuchtigkeit
00:00 +23°C° 0 mm 5 m/S 755 mmHg 91%
01:00 +23°C° 0 mm 5 m/S 754 mmHg 89%
02:00 +23°C° 0 mm 5 m/S 754 mmHg 87%
03:00 +23°C° 0 mm 5 m/S 754 mmHg 87%
04:00 +23°C° 0 mm 5 m/S 754 mmHg 86%
05:00 +22°C° 0 mm 6 m/S 754 mmHg 86%
06:00 +24°C° 0 mm 6 m/S 754 mmHg 79%
07:00 +26°C° 0 mm 6 m/S 754 mmHg 72%
08:00 +28°C° 0 mm 6 m/S 754 mmHg 66%
09:00 +30°C° 0 mm 6 m/S 754 mmHg 60%
10:00 +32°C° 0 mm 6 m/S 754 mmHg 54%
11:00 +34°C° 0 mm 7 m/S 753 mmHg 48%
12:00 +34°C° 0 mm 7 m/S 752 mmHg 48%
13:00 +35°C° 0 mm 7 m/S 751 mmHg 47%
14:00 +35°C° 0 mm 8 m/S 750 mmHg 46%
15:00 +33°C° 0 mm 8 m/S 750 mmHg 51%
16:00 +32°C° 0 mm 8 m/S 750 mmHg 55%
17:00 +31°C° 0 mm 8 m/S 750 mmHg 59%
18:00 +28°C° 0 mm 8 m/S 750 mmHg 66%
19:00 +27°C° 0 mm 7 m/S 750 mmHg 73%
20:00 +24°C° 0 mm 6 m/S 751 mmHg 80%
21:00 +24°C° 0 mm 6 m/S 751 mmHg 81%
22:00 +23°C° 0 mm 5 m/S 751 mmHg 82%
23:00 +23°C° 0 mm 5 m/S 752 mmHg 84%
Mehr zeigen

Wir brauchen deine Erlaubnis

Meteoprog und unser Service Anbieter werden persönliche Daten aufbewahren, so wie Cookies, Geräte Bezeichnung oder ähnliche Technologien von deinem Gerät und Prozess, so wie Persönliche Daten Inhalte und Werbungen, genauso wie social Media und den Verkehr zu analysieren.

  • Aufbewahrung und/oder Zugang zu deiner Geräte Informationen.

    Cookies, Geräte Bezeichnung oder andere Informationen, können aufbewahrt oder Zugang zu deinem Gerät erhalten, für den Grund, der oben angegeben wird.

  • Personalisierte Werbung und Inhalte, Messungen, Einblick in das Publikum und Produkt Entwicklung.

    Werbungen und Inhalte können personalisiert werden, basierend auf ein Profil. Mehr Daten können besser personalisierte Werbungen und Inhalte hinzufügen. Werbung und Inhalte können gezeigt und gemessen werden. Einblicke über das Publikum, welche die Werbung gesehen haben und den Inhalt, können abgeleitet werden. So wie Daten können genutzt werden, um es zu verbessern oder die Benutzer Erfahrung zu verbessern das System und die Software.

Wenn du “Ich stimme zu” klickst, erlaubst du uns, die Cookies zu benutzen die Geräte Bezeichnung, den Web oder ähnliche Technologien zu benutzen. Deine Settings, können in deinem Gerät bei deinem Browser geändert werden.

Für den bestimmten Zweck, berechtigten Interessen beruhen darauf, mehr als auf den Inhalt. Du kannst mehr darüber in unseren Privaten und Cookie Politik lesen.